Laax, Switzerland
Current Conditions -  °F | °C
As of 10:50 AM on Sunday 21 Dec 2014 (Local Time) from LSZS Reporting Station
Clear Clear  
Wind Chill: 27°   Ceiling: Unl
Heat Index: 27°   Visibility: 6mi
Dew Point: 12°   Wind: 1mph
Humidity: 55%   Direction: NA
Pressure: 30.39"   Gusts: NA
Location:  46.81°N, 9.26°E
Report Text: LSZS 210950Z VRB01KT CAVOK M03/M11 Q1029
Loading
Personal Weather Stations






























Interactive Weather Map New forecast layout! Learn more

10-Day Weather Forecast

Advertisements
Track Severe Weather on mobile